When you browse on this site, cookies collect data to enhance your experience and personalize the content and advertising you see.
Visit our Privacy Policy to learn more. By continuing to use the site, you agree to this use of cookies and data.
  • In Deutschland
  • Länderverzeichnis
  • Für 7 Tage
  • Wassertemperatur
  • Wetterkarte
  • Widgets
  • user-avatar
    Anmelden

    Stündliche Wetter Thimbu

    Heute, 18 Januar, Samstag

    Zeit Temperatur Niederschläge Wind Luftdruck Luftfeuchtigkeit
    00:00 +1°C° 0 mm 1 m/S 521 mmHg 98%
    01:00 +1°C° 0.6 mm 1 m/S 521 mmHg 98%
    02:00 +1°C° 0.6 mm 1 m/S 520 mmHg 98%
    03:00 +1°C° 0.6 mm 1 m/S 520 mmHg 97%
    04:00 0°C° 0.5 mm 1 m/S 520 mmHg 97%
    05:00 -1°C° 0.5 mm 0 m/S 520 mmHg 97%
    06:00 0°C° 0 mm 1 m/S 519 mmHg 97%
    07:00 +1°C° 0.1 mm 1 m/S 520 mmHg 94%
    08:00 +2°C° 0.1 mm 1 m/S 521 mmHg 90%
    09:00 +2°C° 0.1 mm 1 m/S 522 mmHg 87%
    10:00 +4°C° 0.1 mm 1 m/S 523 mmHg 80%
    11:00 +5°C° 0.1 mm 1 m/S 523 mmHg 73%
    12:00 +5°C° 0.1 mm 2 m/S 524 mmHg 66%
    13:00 +5°C° 0.2 mm 2 m/S 523 mmHg 64%
    14:00 +5°C° 0.2 mm 2 m/S 523 mmHg 61%
    15:00 +5°C° 0.2 mm 2 m/S 522 mmHg 58%
    16:00 +4°C° 0.1 mm 1 m/S 521 mmHg 69%
    17:00 +1°C° 0.1 mm 1 m/S 520 mmHg 80%
    18:00 -1°C° 0.1 mm 1 m/S 518 mmHg 91%
    19:00 -2°C° 0 mm 1 m/S 518 mmHg 89%
    20:00 -2°C° 0 mm 1 m/S 518 mmHg 87%
    21:00 -3°C° 0 mm 1 m/S 519 mmHg 85%
    22:00 -5°C° 0 mm 2 m/S 518 mmHg 84%
    23:00 -5°C° 0 mm 2 m/S 518 mmHg 82%

    Morgen, 19 Januar, Sonntag

    Zeit Temperatur Niederschläge Wind Luftdruck Luftfeuchtigkeit
    00:00 -6°C° 0 mm 2 m/S 518 mmHg 81%
    01:00 -6°C° 0 mm 2 m/S 518 mmHg 80%
    02:00 -6°C° 0 mm 2 m/S 517 mmHg 78%
    03:00 -7°C° 0 mm 2 m/S 517 mmHg 77%
    04:00 -7°C° 0 mm 2 m/S 517 mmHg 76%
    05:00 -7°C° 0 mm 2 m/S 517 mmHg 75%
    06:00 -7°C° 0 mm 2 m/S 517 mmHg 74%
    07:00 -3°C° 0 mm 1 m/S 518 mmHg 66%
    08:00 0°C° 0 mm 1 m/S 520 mmHg 59%
    09:00 +1°C° 0 mm 0 m/S 522 mmHg 51%
    10:00 +3°C° 0 mm 1 m/S 522 mmHg 47%
    11:00 +3°C° 0 mm 2 m/S 522 mmHg 43%
    12:00 +5°C° 0 mm 2 m/S 522 mmHg 40%
    13:00 +4°C° 0.1 mm 2 m/S 522 mmHg 46%
    14:00 +4°C° 0.1 mm 2 m/S 521 mmHg 52%
    15:00 +3°C° 0.1 mm 2 m/S 520 mmHg 58%
    16:00 +1°C° 0.4 mm 2 m/S 519 mmHg 71%
    17:00 0°C° 0.4 mm 1 m/S 518 mmHg 84%
    18:00 -1°C° 0.4 mm 1 m/S 517 mmHg 97%
    19:00 -2°C° 0.6 mm 1 m/S 517 mmHg 97%
    20:00 -2°C° 0.6 mm 1 m/S 517 mmHg 97%
    21:00 -2°C° 0.6 mm 1 m/S 518 mmHg 97%
    22:00 -2°C° 0.4 mm 1 m/S 517 mmHg 97%
    23:00 -3°C° 0.4 mm 1 m/S 517 mmHg 97%

    übermorgen, 20 Januar, Montag

    Zeit Temperatur Niederschläge Wind Luftdruck Luftfeuchtigkeit
    00:00 -4°C° 0.4 mm 1 m/S 516 mmHg 97%
    01:00 -6°C° 0.1 mm 2 m/S 516 mmHg 93%
    02:00 -7°C° 0.1 mm 2 m/S 516 mmHg 90%
    03:00 -8°C° 0.1 mm 2 m/S 515 mmHg 87%
    04:00 -8°C° 0 mm 2 m/S 515 mmHg 85%
    05:00 -8°C° 0 mm 2 m/S 515 mmHg 83%
    06:00 -9°C° 0 mm 2 m/S 515 mmHg 81%
    07:00 -4°C° 0 mm 1 m/S 517 mmHg 74%
    08:00 -2°C° 0 mm 1 m/S 518 mmHg 67%
    09:00 -1°C° 0 mm 0 m/S 520 mmHg 60%
    10:00 +1°C° 0 mm 1 m/S 520 mmHg 57%
    11:00 +3°C° 0 mm 1 m/S 521 mmHg 53%
    12:00 +3°C° 0 mm 2 m/S 521 mmHg 50%
    13:00 +3°C° 0.1 mm 2 m/S 521 mmHg 56%
    14:00 +3°C° 0.1 mm 2 m/S 520 mmHg 61%
    15:00 +2°C° 0.1 mm 2 m/S 519 mmHg 66%
    16:00 +1°C° 0.2 mm 1 m/S 519 mmHg 76%
    17:00 -1°C° 0.2 mm 1 m/S 518 mmHg 86%
    18:00 -3°C° 0.2 mm 0 m/S 517 mmHg 96%
    19:00 -3°C° 0.3 mm 1 m/S 517 mmHg 95%
    20:00 -3°C° 0.3 mm 1 m/S 518 mmHg 93%
    21:00 -3°C° 0.3 mm 1 m/S 518 mmHg 92%
    22:00 -3°C° 0.2 mm 1 m/S 518 mmHg 91%
    23:00 -4°C° 0.2 mm 1 m/S 518 mmHg 90%

    21 Januar, Dienstag

    Zeit Temperatur Niederschläge Wind Luftdruck Luftfeuchtigkeit
    00:00 -4°C° 0.2 mm 1 m/S 517 mmHg 90%
    01:00 -6°C° 0 mm 1 m/S 517 mmHg 88%
    02:00 -7°C° 0 mm 2 m/S 516 mmHg 86%
    03:00 -8°C° 0 mm 2 m/S 516 mmHg 85%
    04:00 -8°C° 0 mm 2 m/S 516 mmHg 83%
    05:00 -8°C° 0 mm 2 m/S 516 mmHg 82%
    06:00 -8°C° 0 mm 2 m/S 516 mmHg 81%
    07:00 -4°C° 0 mm 1 m/S 517 mmHg 75%
    08:00 -2°C° 0 mm 1 m/S 519 mmHg 69%
    09:00 0°C° 0 mm 1 m/S 521 mmHg 63%
    10:00 +1°C° 0 mm 1 m/S 521 mmHg 64%
    11:00 +3°C° 0 mm 1 m/S 521 mmHg 64%
    12:00 +3°C° 0 mm 2 m/S 522 mmHg 64%
    13:00 +2°C° 0.3 mm 2 m/S 521 mmHg 69%
    14:00 +2°C° 0.3 mm 2 m/S 521 mmHg 73%
    15:00 +2°C° 0.3 mm 2 m/S 520 mmHg 78%
    16:00 -1°C° 0.3 mm 2 m/S 519 mmHg 84%
    17:00 0°C° 0.3 mm 1 m/S 519 mmHg 90%
    18:00 -3°C° 0.3 mm 0 m/S 518 mmHg 97%
    19:00 -2°C° 0.1 mm 1 m/S 518 mmHg 95%
    20:00 -3°C° 0.1 mm 1 m/S 518 mmHg 93%
    21:00 -3°C° 0.1 mm 1 m/S 519 mmHg 91%
    22:00 -4°C° 0 mm 1 m/S 518 mmHg 89%
    23:00 -6°C° 0 mm 2 m/S 518 mmHg 88%

    22 Januar, Mittwoch

    Zeit Temperatur Niederschläge Wind Luftdruck Luftfeuchtigkeit
    00:00 -7°C° 0 mm 2 m/S 517 mmHg 86%
    01:00 -7°C° 0 mm 2 m/S 517 mmHg 85%
    02:00 -8°C° 0 mm 2 m/S 516 mmHg 84%
    03:00 -8°C° 0 mm 2 m/S 516 mmHg 83%
    04:00 -8°C° 0 mm 2 m/S 516 mmHg 82%
    05:00 -8°C° 0 mm 2 m/S 516 mmHg 81%
    06:00 -9°C° 0 mm 2 m/S 515 mmHg 80%
    07:00 -6°C° 0 mm 2 m/S 517 mmHg 75%
    08:00 -2°C° 0 mm 1 m/S 519 mmHg 70%
    09:00 0°C° 0 mm 1 m/S 520 mmHg 65%
    10:00 +1°C° 0 mm 1 m/S 520 mmHg 64%
    11:00 +2°C° 0 mm 1 m/S 520 mmHg 64%
    12:00 +2°C° 0 mm 2 m/S 520 mmHg 63%
    13:00 +2°C° 0.2 mm 2 m/S 520 mmHg 67%
    14:00 +2°C° 0.2 mm 2 m/S 519 mmHg 71%
    15:00 +1°C° 0.2 mm 2 m/S 518 mmHg 75%
    16:00 -2°C° 0.2 mm 2 m/S 517 mmHg 82%
    17:00 -2°C° 0.2 mm 1 m/S 516 mmHg 89%
    18:00 -4°C° 0.2 mm 0 m/S 515 mmHg 97%
    19:00 -4°C° 0.1 mm 1 m/S 515 mmHg 95%
    20:00 -4°C° 0.1 mm 1 m/S 515 mmHg 93%
    21:00 -7°C° 0.1 mm 2 m/S 515 mmHg 91%
    22:00 -7°C° 0 mm 2 m/S 515 mmHg 89%
    23:00 -8°C° 0 mm 2 m/S 515 mmHg 86%

    23 Januar, Donnerstag

    Zeit Temperatur Niederschläge Wind Luftdruck Luftfeuchtigkeit
    00:00 -8°C° 0 mm 2 m/S 514 mmHg 84%
    01:00 -8°C° 0 mm 2 m/S 514 mmHg 82%
    02:00 -8°C° 0 mm 2 m/S 514 mmHg 81%
    03:00 -8°C° 0 mm 2 m/S 513 mmHg 79%
    04:00 -9°C° 0 mm 2 m/S 513 mmHg 78%
    05:00 -9°C° 0 mm 2 m/S 513 mmHg 77%
    06:00 -9°C° 0 mm 2 m/S 513 mmHg 77%
    07:00 -4°C° 0 mm 1 m/S 515 mmHg 71%
    08:00 -2°C° 0 mm 1 m/S 517 mmHg 65%
    09:00 -1°C° 0 mm 0 m/S 518 mmHg 60%
    10:00 +1°C° 0 mm 1 m/S 519 mmHg 58%
    11:00 +2°C° 0 mm 1 m/S 519 mmHg 57%
    12:00 +4°C° 0 mm 1 m/S 520 mmHg 56%
    13:00 +2°C° 0.1 mm 2 m/S 519 mmHg 61%
    14:00 +2°C° 0.1 mm 2 m/S 519 mmHg 65%
    15:00 +2°C° 0.1 mm 2 m/S 518 mmHg 70%
    16:00 +1°C° 0.1 mm 1 m/S 517 mmHg 79%
    17:00 -1°C° 0.1 mm 1 m/S 516 mmHg 88%
    18:00 -4°C° 0.1 mm 0 m/S 514 mmHg 98%
    19:00 -4°C° 0.1 mm 0 m/S 515 mmHg 93%
    20:00 -3°C° 0.1 mm 1 m/S 515 mmHg 89%
    21:00 -3°C° 0.1 mm 1 m/S 516 mmHg 85%
    22:00 -4°C° 0 mm 1 m/S 516 mmHg 81%
    23:00 -4°C° 0 mm 1 m/S 516 mmHg 76%
    Mehr zeigen